Regional Weather Roundup
Issued by NWS

Home | Current Version | Previous Version | Text Only | Print | Product List | Glossary Off
Versions: 1 2 3 4 5 6 7 8 9 10 11 12 13 14 15 16 17 18 19 20 21 22 23 24 25 26 27 28 29 30 31 32 33 34 35 36 37 38 39 40 41 42 43 44 45 46 47 48 49 50

000
ASUS45 KTFX 110419
RWRMT
MONTANA HOURLY WEATHER ROUNDUP
NATIONAL WEATHER SERVICE GREAT FALLS MT
1019 PM MDT THU JUL 10 2014

NOTE: "FAIR" INDICATES FEW OR NO CLOUDS BELOW 12000 FEET WITH NO
SIGNIFICANT WEATHER AND/OR OBSTRUCTIONS TO VISIBILITY.

* THESE STATIONS ARE NOT UNDER NWS QUALITY CONTROL. THEY DO NOT
   REPORT WEATHER SUCH AS PRECIPITATION OR FOG.

MTZ001>007-043-110500-
WEST OF THE DIVIDE
CITY           SKY/WX    TMP DP  RH WIND       PRES   REMARKS
KALISPELL      CLEAR     72  45  38 W6        29.88R
MISSOULA       CLEAR     73  32  22 N9        29.90R
BUTTE          CLEAR     73  37  27 NW6       30.04R
MULLAN PASS    CLEAR     61  39  44 NW5       30.10R
* ESSEX        N/A      N/A N/A N/A N/A        N/A
* LINCOLN      N/A       75  39  27 S2G11      N/A
* LOOKOUT PASS N/A       65  46  50 VRB2       N/A
* POLSON       N/A       68  39  35 NW1G6      N/A
* RONAN APT    CLEAR     72  50  46 N/A        N/A
* SEELEY LAKE  N/A       75  36  24 N3G11      N/A
* THOMP F APT  CLEAR     69  48  47 NE3G9      N/A
* YAAK HILL    N/A       76  45  33 E3         N/A
$$

MTZ008-052>055-110500-
SOUTHWEST MONTANA
CITY           SKY/WX    TMP DP  RH WIND       PRES   REMARKS
BOZEMAN        PTCLDY    70  54  57 E5        29.93R
DILLON         CLEAR     70  41  35 E7        29.98R
W YELLOWSTONE  PTCLDY    63  48  58 SW3       30.14R
* THREE FORKS  CLEAR     75  54  48 N/A        N/A
* BOULDER HILL N/A       70  33  26 W2         N/A
* MONIDA PASS  N/A       70  48  46 S9         N/A
* RAYNOLDS PAS N/A       63  43  48 SE9        N/A
* WHITEHALL    N/A       80  37  21 NW5        N/A
* WISE RIVER   N/A       74  41  31 S3G9       N/A
$$

MTZ009>010-012-014-046-048-049-054-110500-
EAST SLOPES AND CENTRAL MONTANA
CITY           SKY/WX    TMP DP  RH WIND       PRES   REMARKS
CUT BANK       CLEAR     70  55  59 NE9       29.93R
GREAT FALLS    CLEAR     75  45  34 N10       29.88R
HELENA         CLEAR     81  36  20 W6        29.91R
* CONRAD       CLEAR     70  61  73 N/A        N/A
* DEARBORN     N/A       76  43  31 N/A        N/A
* EAST GLACIER N/A       68  35  30 NW5        N/A
* MONARCH      N/A       64  34  33 E1         N/A
* ROGERS PASS  N/A       62  33  34 NW2        N/A
* SAINT MARY   N/A       65  34  32 S4G10      N/A
* SWEET GRASS  N/A       64  64 100 NE12       N/A
* WHITE SULPH  N/A       71  37  29 SW1G9      N/A
$$

MTZ011-013-016-021-035-040-045-047-050-051-110500-
NORTH CENTRAL MONTANA
CITY           SKY/WX    TMP DP  RH WIND       PRES   REMARKS
HAVRE          PTCLDY    75  57  54 E17       29.87R
LEWISTOWN      CLEAR     73  46  38 E7        29.92R
* FORT BENTON  CLEAR     75  48  39 N7        29.85R
* CHESTER      N/A       73  52  48 NE7        N/A
* DENTON       N/A       71  46  41 SE3        N/A
* JUDITH GAP   N/A       71  47  43 N/A        N/A
* LOMA         N/A       76  52  43 VRB14      N/A
$$

MTZ017>020-022>027-061-062-110500-
NORTHEAST MONTANA
CITY           SKY/WX    TMP DP  RH WIND       PRES   REMARKS
GLASGOW        PTCLDY    72  57  59 NE12      29.87R
GLENDIVE       CLEAR     73  61  66 CALM      29.89R
JORDAN         CLEAR     77  54  45 NE12      29.85R
SIDNEY         CLEAR     70  61  73 NW6       29.89R
WOLF POINT     CLEAR     70  57  64 N6        29.87R
* BEAVER HILL  N/A       74  63  69 N14G20     N/A
* CIRCLE       N/A       72  61  68 N4         N/A
* LINDSAY DVD  N/A       71  62  73 VRB12G17    N/A
* NAVAJO       N/A       64  57  78 N7         N/A
* SACO         N/A       70  60  71 VRB11      N/A
$$

MTZ028>042-056>058-110500-
SOUTHCENTRAL AND SOUTHEAST MONTANA
CITY           SKY/WX    TMP DP  RH WIND       PRES   REMARKS
BAKER          CLEAR     72  54  53 CALM      29.89R
BILLINGS       PTCLDY    82  46  28 SW6       29.89R
LIVINGSTON     CLEAR     70  43  38 S3        29.94R
MILES CITY     CLEAR     75  52  45 NE9       29.85R
* LAUREL APT   PTCLDY    77  52  42 N/A        N/A
* ROUNDUP APT  CLEAR     75  39  27 N/A        N/A
* ALZADA       N/A       74  58  58 N/A        N/A
* HYSHAM       N/A       76  45  33 E9G14      N/A
* LAME DEER    N/A       79  44  29 N/A        N/A
* REED POINT   N/A       75  49  40 W1         N/A
* ROSCOE HILL  N/A       74  43  33 SW10G15    N/A
$$

REGIONAL REPORTS...DAKOTAS
CITY           SKY/WX    TMP DP  RH WIND       PRES   REMARKS
WILLISTON      CLEAR     73  63  71 N12       29.84R
DICKINSON      CLEAR     70  66  87 S9        29.82R
CROSBY         N/A       64  64 100 NW7       29.86R
TIOGA          MOCLDY    72  72 100 N13       29.88R
WATFORD CITY   CLEAR     73  66  79 N12G17    29.82R
BISMARCK       CLEAR     68  64  87 SE3       29.83R
GRAND FORKS    PTCLDY    70  64  81 S8        29.81F
FARGO          CLOUDY    72  68  87 SE10      29.84R
BUFFALO SD     PTCLDY    73  66  79 S9        29.82R
RAPID CITY     MOCLDY    72  63  73 SW6       29.91F
$$

REGIONAL REPORTS...WYOMING/IDAHO/WASHINGTON
CITY           SKY/WX    TMP DP  RH WIND       PRES   REMARKS
GILLETTE       CLOUDY    70  57  64 S3        29.98R
SHERIDAN       MOCLDY    64  55  73 S5        29.95R
CODY           PTCLDY    66  57  73 N3        30.05R
YELLOWSTONE LA PTCLDY    54  48  80 NW3       30.25R
SALMON         CLEAR     75  43  32 CALM      29.89R
MULLAN PASS    CLEAR     61  39  44 NW5       30.10S
SAND POINT     CLEAR     66  54  65 CALM      29.86R
SPOKANE        FAIR      84  37  19 E9        29.85R
$$

REGIONAL REPORTS...ALBERTA
CITY           SKY/WX    TMP DP  RH WIND       PRES   REMARKS
CALGARY        PTCLDY    63  45  52 N14       30.08R
LETHBRIDGE     TSTM      63  54  73 NE16G25   29.96R
MEDICINE HAT   MOCLDY    72  54  53 NE8       29.94R
EDMONTON       MOCLDY    57  48  72 NW20G29   30.04R
WATERTON GATE  N/A       63  57  81 NE12G18    N/A
CARDSTON       N/A       66  59  78 NE10       N/A
MILK RIVER     N/A       66  57  73 NE9        N/A
$$

REGIONAL REPORTS...SASKATCHEWAN
CITY           SKY/WX    TMP DP  RH WIND       PRES   REMARKS
SWIFT CURRENT  CLEAR     64  52  65 E2        29.93R
REGINA         FAIR      64  55  73 NW2       29.88R
VAL MARIE      N/A       61  59  93 NE5        N/A
ASSINIBOIA     N/A       64  59  84 N3         N/A
CORONACH       N/A       61  59  93 NW3        N/A

$$




USA.gov is the U.S. government's official web portal to all federal, state and local government web resources and services.